Terminal Aerodrome Forecast
Issued by NWS

Current Version | Previous Version | Graphics & Text | Print | Product List | Glossary On
Versions: 1 2 3 4 5 6 7 8 9 10 11 12 13 14 15 16 17 18 19 20 21
000
FTUS41 KPBZ 140500
TAFHLG
TAF
KHLG 140528Z 1406/1506 00000KT P6SM FEW050
     FM140800 00000KT 5SM BR SKC
      TEMPO 1408/1412 3SM BR
     FM141200 VRB03KT P6SM SCT050=

USA.gov is the U.S. government's official web portal to all federal, state and local government web resources and services.